Regional Weather Roundup
Issued by NWS Newport/Morehead, NC

Current Version | Previous Version | Text Only | Print | Product List | Glossary Off
Versions: 1 2 3 4 5 6 7 8 9 10 11 12 13 14 15 16 17 18 19 20 21 22 23 24 25 26 27 28 29 30 31 32 33 34 35 36 37 38 39 40 41 42 43 44 45 46 47 48 49 50
000 ASUS42 KMHX 011128 RWRMHX WEATHER ROUNDUP FOR EASTERN NORTH CAROLINA NATIONAL WEATHER SERVICE NEWPORT/MOREHEAD CITY NC 600 AM EST SUN MAR 01 2015 NOTE: "FAIR" INDICATES FEW OR NO CLOUDS BELOW 12,000 FEET WITH NO SIGNIFICANT WEATHER AND/OR OBSTRUCTIONS TO VISIBILITY NCZ015>017-031-032-045>047-102-103-011200- NORTH COAST CITY SKY/WX TMP DP RH WIND PRES REMARKS EDENTON CLOUDY 32 26 80 N5 30.61R ELIZABETH CITY MOCLDY 34 28 79 N8 30.61F KITTY HAWK PTSUNNY 37 33 88 N8 30.59R MANTEO MOCLDY 37 34 87 N13 30.60S $$ NCZ045>047-081-094-103-104-011200- CENTRAL COAST CITY SKY/WX TMP DP RH WIND PRES REMARKS FRISCO CLOUDY 39 37 92 NE6 30.55F SWANQUARTER N/A 36 N/A N/A N10 30.53S $$ NCZ095-097-098-100-101-011200- SOUTHERN COAST CITY SKY/WX TMP DP RH WIND PRES REMARKS BEAUFORT CLOUDY 36 33 89 NE9 30.56R CEDAR ISLAND N/A 37 N/A N/A NW9 30.59S JACKSONVILLE LGT RAIN 35 29 78 N8 30.57S PINEY ISLAND N/A N/A N/A N/A MISG 30.58R WILMINGTON MIX PCPN 36 30 79 N6 30.55S $$ NCZ011>013-027>030-043-044-078>080-089-090>093-098-011200- COASTAL PLAIN CITY SKY/WX TMP DP RH WIND PRES REMARKS AHOSKIE CLOUDY 28 20 72 N5 30.64S CLINTON CLOUDY 33 30 89 N5 30.59S ELIZABETHTOWN CLOUDY 33 31 90 NE5 30.57S GOLDSBORO MOCLDY 32 32 100 N5 30.57S GREENVILLE RAIN 32 25 74 N5 30.60S HAVELOCK CLOUDY 36 29 75 N8 30.59R KENANSVILLE MIX PCPN 32 28 83 NE3 30.59S KINSTON NOT AVBL NEW BERN CLOUDY 34 27 75 N7 30.60R RICHLANDS CLOUDY 34 27 75 N6 30.58S ROCKY MOUNT CLOUDY 30 22 72 N9 30.61F WASHINGTON CLOUDY 32 24 72 N7 30.61S WHITEVILLE CLOUDY 36 29 76 NE5 30.54S $$ AMZ130-135-150-152-154-156-158-170-250-252-270-ANZ085-086-088-633-658-670-011200- MARINE OBSERVATIONS STATION/POSITION TIME TEMP WIND PRES WAVE SWELL AIR SEA DIR/SP/G HT/PER HT/PER (UTC) (F) (DEG/KT/KT) (MB) (FT/S) (FT/S) CHESAPEAKE LIGHT 1100 35 40/ 16/ 18 1036.9 64 E VA BEACH 1050 52 64 60/ 16/ 17 1035.3 4/ 9 2/ 9 DUCK 1100 36 34 20/ 13/ 15 1034.6 2 E DUCK 1011 34 N/A 4/ 6 2/11 10 NE DUCK 1022 36 N/A 4/11 2/11 OREGON INLET 1100 38 38 340/ 8/ 12 1035.7 HATTERAS CG 1100 39 38 40/ 7/ 9 1034.8 CAPE LOOKOUT 1100 38 20/ 11/ 13 1034.5 BEAUFORT LAB 1100 36 41 20/ 10/ 12 1033.6 27 SE WRIGHTSVLE NOT AVBL 5 SE WRIGHTSVLE NOT AVBL 225 S CAPE HAT 1050 67 71 90/ 21/ 25 1032.2 9/ 8 41 SE CHARLESTON 1050 68 66 110/ 17/ 19 1029.6 9/ 7 5/ 8 $$

USA.gov is the U.S. government's official web portal to all federal, state and local government web resources and services.